Weather History for Wolf Point, MT

Change the Weather History Date:

Saturday, March 16, 2013

  Actual Average Record
Temperature  
Mean Temperature 16 °F -  
Max Temperature 20 °F 43 °F 73 °F (2012)
Min Temperature 12 °F 18 °F 12 °F (2013)
Degree Days  
Heating Degree Days 49    
Cooling Degree Days 0    
Moisture  
Dew Point 8 °F    
Average Humidity 76    
Maximum Humidity 86    
Minimum Humidity 68    
Precipitation  
Precipitation T in 0.01 in 0.04 in (2002)
Month to date precipitation 0.21 0.19  
Year to date precipitation 0.41 0.71  
Sea Level Pressure  
Sea Level Pressure 30.16 in    
Wind  
Wind Speed 9 mph (ENE)    
Max Wind Speed 17 mph    
Max Gust Speed -    
Visibility 5 miles    
Events Snow    
T = Trace of Precipitation, MM = Missing Value Source: NWS Daily Summary

Daily Weather History Graph

Daily Weather History Graph

Search for Another Location

Airport:

Trip Planner

Search our weather history database for the weather conditions in past years. The results will help you decide how hot, cold, wet, or windy it might be!

Date:

Astronomy

Mar. 16, 2013 Rise Set
Actual Time 7:12 AM MDT 7:09 PM MDT
Civil Twilight 6:41 AM MDT 7:40 PM MDT
Nautical Twilight 6:05 AM MDT 8:17 PM MDT
Astronomical Twilight 5:28 AM MDT 8:54 PM MDT
Moon 9:21 AM MDT (3/16) No Moon Set
Length of Visible Light 12h 58m
Length of Day
11h 56m
Waxing Crescent, 23% of the Moon is Illuminated
Mar 16
Waxing Crescent
Mar 19
First Quarter
Mar 27
Full
Apr 2
Last Quarter
Apr 10
New

Hourly Weather History & Observations

Time (MDT) Temp. Windchill Dew Point Humidity Pressure Visibility Wind Dir Wind Speed Gust Speed Precip Events Conditions
12:53 AM 14.0 °F 8.2 °F 10.0 °F 84% 30.30 in 10.0 mi East 3.5 mph - N/A   Overcast
1:46 AM 14.0 °F 8.2 °F 10.4 °F 86% 30.20 in 2.0 mi East 3.5 mph - 0.00 in Snow Light Snow
1:53 AM 15.1 °F 9.4 °F 10.0 °F 80% 30.30 in 4.0 mi East 3.5 mph - 0.00 in Snow Light Snow
2:53 AM 16.0 °F - 10.9 °F 81% 30.30 in 10.0 mi Calm Calm - 0.00 in   Overcast
3:53 AM 16.0 °F - 10.9 °F 81% 30.29 in 10.0 mi Calm Calm - 0.00 in   Overcast
4:53 AM 17.1 °F - 10.9 °F 77% 30.27 in 10.0 mi Calm Calm - N/A   Overcast
5:53 AM 18.0 °F 12.7 °F 10.9 °F 74% 30.26 in 10.0 mi East 3.5 mph - N/A   Overcast
6:53 AM 18.0 °F 11.1 °F 10.9 °F 74% 30.25 in 10.0 mi East 4.6 mph - N/A   Overcast
7:38 AM 17.6 °F 9.3 °F 10.4 °F 73% 30.15 in 4.0 mi East 5.8 mph - N/A   Haze
7:53 AM 17.1 °F 6.6 °F 10.9 °F 77% 30.26 in 3.0 mi ENE 8.1 mph - 0.00 in Snow Light Snow
8:06 AM 15.8 °F 2.1 °F 10.4 °F 79% 30.15 in 1.8 mi NE 12.7 mph - 0.00 in Snow Light Snow
8:18 AM 14.0 °F -0.2 °F 8.6 °F 79% 30.15 in 1.0 mi NE 12.7 mph - 0.00 in Snow Light Snow
8:34 AM 14.0 °F -2.0 °F 8.6 °F 79% 30.15 in 1.8 mi NE 16.1 mph - 0.00 in Snow Light Snow
8:43 AM 12.2 °F -3.7 °F 6.8 °F 79% 30.15 in 2.0 mi NE 15.0 mph - 0.00 in Snow Light Snow
8:53 AM 12.0 °F -4.0 °F 7.0 °F 80% 30.28 in 1.8 mi NE 15.0 mph - 0.00 in Snow Light Snow
9:08 AM 12.2 °F -2.5 °F 6.8 °F 79% 30.16 in 2.5 mi NE 12.7 mph - 0.00 in Snow Light Snow
9:16 AM 12.2 °F -2.5 °F 6.8 °F 79% 30.16 in 4.0 mi NE 12.7 mph - 0.00 in Snow Light Snow
9:49 AM 12.2 °F -2.5 °F 6.8 °F 79% 30.16 in 6.0 mi NE 12.7 mph - 0.00 in   Haze
9:53 AM 12.9 °F -0.9 °F 6.1 °F 74% 30.28 in 6.0 mi NE 11.5 mph - 0.00 in   Haze
10:19 AM 12.2 °F -1.8 °F 6.8 °F 79% 30.17 in 7.0 mi ENE 11.5 mph - N/A   Overcast
10:36 AM 14.0 °F 0.5 °F 6.8 °F 73% 30.17 in 6.0 mi ENE 11.5 mph - N/A   Haze
10:43 AM 14.0 °F 0.5 °F 6.8 °F 73% 30.18 in 5.0 mi ENE 11.5 mph - N/A   Haze
10:53 AM 14.0 °F -0.2 °F 7.0 °F 74% 30.30 in 3.0 mi ENE 12.7 mph - 0.00 in Snow Light Snow
11:20 AM 15.8 °F 2.7 °F 6.8 °F 68% 30.18 in 2.5 mi ENE 11.5 mph - 0.00 in Snow Light Snow
11:41 AM 15.8 °F 2.1 °F 6.8 °F 68% 30.17 in 3.0 mi East 12.7 mph - 0.00 in Snow Light Snow
11:53 AM 16.0 °F 2.9 °F 8.1 °F 71% 30.29 in 3.0 mi East 11.5 mph - 0.00 in Snow Light Snow
12:12 PM 15.8 °F 2.7 °F 6.8 °F 68% 30.17 in 7.0 mi ENE 11.5 mph - 0.00 in   Overcast
12:22 PM 15.8 °F 1.4 °F 8.6 °F 73% 30.17 in 2.5 mi East 13.8 mph - 0.00 in Snow Light Snow
12:36 PM 15.8 °F 0.9 °F 6.8 °F 68% 30.17 in 4.0 mi East 15.0 mph - 0.00 in   Haze
12:51 PM 14.0 °F -1.4 °F 6.8 °F 73% 30.17 in 5.0 mi East 15.0 mph - 0.00 in   Haze
12:53 PM 14.0 °F -0.2 °F 6.1 °F 71% 30.29 in 5.0 mi East 12.7 mph - 0.00 in Snow Light Snow
1:39 PM 12.2 °F -3.1 °F 6.8 °F 79% 30.16 in 1.8 mi East 13.8 mph - 0.00 in Snow Light Snow
1:51 PM 12.2 °F -3.7 °F 6.8 °F 79% 30.15 in 3.0 mi East 15.0 mph - 0.00 in Snow Light Snow
1:53 PM 12.9 °F -3.9 °F 6.1 °F 74% 30.27 in 3.0 mi East 17.3 mph - 0.00 in Snow Light Snow
2:53 PM 12.9 °F -3.4 °F 6.1 °F 74% 30.25 in 9.0 mi East 16.1 mph - 0.00 in   Overcast
3:50 PM 14.0 °F -2.0 °F 6.8 °F 73% 30.11 in 1.8 mi East 16.1 mph - 0.00 in Snow Light Snow
3:53 PM 14.0 °F -2.0 °F 6.1 °F 71% 30.22 in 1.2 mi East 16.1 mph - 0.00 in Snow Light Snow
4:00 PM 14.0 °F -1.4 °F 6.8 °F 73% 30.10 in 1.0 mi East 15.0 mph - 0.00 in Snow Light Snow
4:11 PM 14.0 °F -0.8 °F 6.8 °F 73% 30.10 in 1.2 mi East 13.8 mph - 0.00 in Snow Light Snow
4:20 PM 14.0 °F -2.0 °F 6.8 °F 73% 30.10 in 2.0 mi East 16.1 mph - 0.00 in Snow Light Snow
4:35 PM 14.0 °F -0.8 °F 6.8 °F 73% 30.11 in 3.0 mi ENE 13.8 mph - 0.00 in Snow Light Snow
4:53 PM 14.0 °F -0.8 °F 7.0 °F 74% 30.22 in 6.0 mi East 13.8 mph - 0.00 in   Haze
5:12 PM 14.0 °F -0.2 °F 8.6 °F 79% 30.09 in 2.0 mi East 12.7 mph - 0.00 in Snow Light Snow
5:18 PM 15.8 °F 0.9 °F 8.6 °F 73% 30.09 in 1.2 mi East 15.0 mph - 0.00 in Snow Light Snow
5:27 PM 14.0 °F -1.4 °F 8.6 °F 79% 30.09 in 1.0 mi East 15.0 mph - 0.00 in Snow Light Snow
5:29 PM 15.8 °F 0.9 °F 8.6 °F 73% 30.08 in 1.2 mi East 15.0 mph - 0.00 in Snow Light Snow
5:41 PM 15.8 °F 2.1 °F 8.6 °F 73% 30.08 in 3.0 mi East 12.7 mph - 0.00 in Snow Light Snow
5:53 PM 15.1 °F 0.5 °F 8.1 °F 74% 30.19 in 4.0 mi East 13.8 mph - 0.00 in Snow Light Snow
6:04 PM 15.8 °F 0.9 °F 8.6 °F 73% 30.07 in 1.8 mi East 15.0 mph - 0.00 in Snow Light Snow
6:49 PM 14.0 °F -0.2 °F 8.6 °F 79% 30.04 in 2.0 mi East 12.7 mph - 0.00 in Snow Light Snow
6:53 PM 14.0 °F -1.4 °F 8.1 °F 77% 30.15 in 2.5 mi ENE 15.0 mph - 0.00 in Snow Light Snow
7:03 PM 14.0 °F -0.2 °F 8.6 °F 79% 30.04 in 3.0 mi ENE 12.7 mph - 0.00 in Snow Light Snow
7:51 PM 12.2 °F -3.1 °F 6.8 °F 79% 30.03 in 7.0 mi East 13.8 mph - 0.00 in   Overcast
7:53 PM 12.9 °F -1.6 °F 7.0 °F 77% 30.14 in 7.0 mi East 12.7 mph - 0.00 in   Overcast
8:53 PM 12.9 °F -2.8 °F 8.1 °F 81% 30.12 in 10.0 mi East 15.0 mph - N/A   Overcast
9:53 PM 14.0 °F -0.8 °F 9.0 °F 80% 30.09 in 10.0 mi East 13.8 mph - N/A   Overcast
10:18 PM 14.0 °F -0.8 °F 8.6 °F 79% 29.94 in 10.0 mi East 13.8 mph - N/A   Overcast
10:53 PM 15.1 °F 1.8 °F 10.9 °F 84% 30.04 in 10.0 mi East 11.5 mph - N/A   Overcast
11:09 PM 15.8 °F 2.1 °F 10.4 °F 79% 29.90 in 10.0 mi East 12.7 mph - N/A   Overcast
11:45 PM 17.6 °F 5.7 °F 12.2 °F 79% 29.88 in 10.0 mi East 10.4 mph - N/A   Overcast
11:53 PM 17.1 °F 5.0 °F 12.0 °F 81% 29.98 in 10.0 mi East 10.4 mph - N/A   Overcast